Language selection

Weather shortcuts

Eastern Lake Superior: Past 24 Hour Conditions

 

Wawa Airport

02:00 AM EDT 14 June 2024
Disclaimer

This table is a summary of hourly weather conditions for the past 24 hours.
Please note that these observations might not always be representative of weather conditions over their associated marine area.

Date / Time
(EDT)
Wind(knots) Conditions Visibility(km) Pressure(kPa) Air tempC) Relative humidity(%) Dew pointC)
14 June 2024
2:00 calm N/A N/A 101.2 8 99 8
1:00 SSE 3 N/A N/A 101.2 9 98 9
0:00 S 2 N/A N/A 101.1 11 99 11
13 June 2024
23:00 calm N/A N/A 101.0 12 94 11
22:00 NE 4 N/A N/A 100.9 11 97 10
21:00 SSW 2 N/A N/A 100.8 9 94 8
20:00 SW 7 Mostly Cloudy 24 100.8 10 87 8
19:00 W 3 Mostly Cloudy 24 100.7 13 86 11
18:00 SW 5 Partly Cloudy 24 100.6 13 82 10
17:00 SSW 8 Thunderstorm 1 100.6 10 97 9
16:00 SSW 5 Mist 2 100.5 9 97 9
15:00 W 2 Mist 6 100.3 14 93 13
14:00 SW 6 Light Rain 6 100.4 12 97 12
13:00 N 1 Mist 2 100.4 13 97 12
12:00 WSW 5 Cloudy 19 100.5 14 92 13
11:00 SSW 5 Mostly Cloudy 24 100.3 17 87 14
10:00 N 2 Mostly Cloudy 24 100.4 13 93 12
9:00 calm Mostly Cloudy 24 100.5 12 94 11
8:00 SSW 5 Mostly Cloudy 24 100.4 12 96 11
7:00 SW 4 Partly Cloudy 24 100.4 12 96 11
6:00 SSW 2 N/A N/A 100.4 12 98 11
5:00 NNW 2 N/A N/A 100.4 12 98 12
4:00 SSE 6 N/A N/A 100.4 14 94 13
3:00 ESE 2 N/A N/A 100.4 13 97 12
2:00 SSW 8 N/A N/A 100.5 14 95 13

Zoom-in to make a selection

Map of Great Lakes - Lake Superior marine weather areas Mid Superior - 45001 East Superior - 45004 West Superior - 45006 Slate Island - 45136 Lake Of the Woods - 45148 Kenora Airport Royal Island Armstrong Airport Caribou Island Marathon Airport Pukaskwa National Park Thunder Bay Airport Welcome Island Little Flatland Island Sault Ste. Marie Airport Wawa Airport
Legend:
buoy Buoy
land station Land Station

Great Lakes - Lake Superior Area

Another Region

Features

New Predicting and Alerting Coastal Flooding Program

Find out about coastal flooding coverage, forecasts and warnings in your region

Date modified: